,,,PA_Meas_PMT16A,,PR_Meas_QMR101_102,,RH_Meas_QMH101,,SR_Meas_QMS101,,TA_Meas_QMH101,,GenWind,,GenWind,
date,time,status,PA,status,PR,status,RH,status,SR,status,TA,status,DirAvg,status,SpdAvg,
2008-10-20, 00:00:04,VALID,1009.59,VALID,0,VALID,95.2914,VALID,0,VALID,22.8562,VALID,216,VALID,0.605469,
2008-10-20, 00:01:04,VALID,1009.57,VALID,0,VALID,95.2762,VALID,0,VALID,22.8368,VALID,215,VALID,0.479297,
2008-10-20, 00:02:04,VALID,1009.52,VALID,0,VALID,95.2609,VALID,0,VALID,22.8562,VALID,210,VALID,0.403516,
2008-10-20, 00:03:04,VALID,1009.51,VALID,0,VALID,95.2533,VALID,0,VALID,22.874,VALID,210,VALID,0.405078,
2008-10-20, 00:04:04,VALID,1009.51,VALID,0,VALID,95.238,VALID,0,VALID,22.8562,VALID,210,VALID,0.313281,
2008-10-20, 00:05:04,VALID,1009.49,VALID,0,VALID,95.2457,VALID,0,VALID,22.8757,VALID,201,VALID,0.403516,
2008-10-20, 00:06:04,VALID,1009.49,VALID,0,VALID,95.2533,VALID,0,VALID,22.8757,VALID,166,VALID,0.395312,
2008-10-20, 00:07:04,VALID,1009.49,VALID,0,VALID,95.238,VALID,0,VALID,22.8757,VALID,166,VALID,0.475,
2008-10-20, 00:08:04,VALID,1009.48,VALID,0,VALID,95.2457,VALID,0,VALID,22.8562,VALID,166,VALID,0.292188,
2008-10-20, 00:09:04,VALID,1009.47,VALID,0,VALID,95.2609,VALID,0,VALID,22.7961,VALID,166,VALID,0.475391,
2008-10-20, 00:10:04,VALID,1009.47,VALID,0,VALID,95.2685,VALID,0,VALID,22.8545,VALID,215,VALID,0.590625,
2008-10-20, 00:11:04,VALID,1009.46,VALID,0,VALID,95.238,VALID,0,VALID,22.8545,VALID,215,VALID,0.445703,
2008-10-20, 00:12:04,VALID,1009.46,VALID,0,VALID,95.2152,VALID,0,VALID,22.8562,VALID,216,VALID,0.596875,
2008-10-20, 00:13:04,VALID,1009.44,VALID,0,VALID,95.2533,VALID,0,VALID,22.8757,VALID,217,VALID,0.389844,
2008-10-20, 00:14:04,VALID,1009.42,VALID,0,VALID,95.238,VALID,0,VALID,22.8757,VALID,219,VALID,0.630859,
2008-10-20, 00:15:04,VALID,1009.41,VALID,0,VALID,95.238,VALID,0,VALID,22.8562,VALID,222,VALID,0.354297,
2008-10-20, 00:16:04,VALID,1009.4,VALID,0,VALID,95.238,VALID,0,VALID,22.835,VALID,221,VALID,0.171484,
2008-10-20, 00:17:04,VALID,1009.37,VALID,0,VALID,95.2304,VALID,0,VALID,22.8562,VALID,221,VALID,0.432422,
2008-10-20, 00:18:04,VALID,1009.36,VALID,0,VALID,95.2152,VALID,0,VALID,22.8562,VALID,221,VALID,0.440625,
2008-10-20, 00:19:04,VALID,1009.39,VALID,0,VALID,95.1999,VALID,0,VALID,22.8562,VALID,215,VALID,0.598828,
2008-10-20, 00:20:04,VALID,1009.37,VALID,0,VALID,95.1847,VALID,0,VALID,22.8562,VALID,215,VALID,0.614453,
2008-10-20, 00:21:04,VALID,1009.36,VALID,0,VALID,95.1847,VALID,0,VALID,22.8368,VALID,226,VALID,0.714844,
2008-10-20, 00:22:04,VALID,1009.31,VALID,0,VALID,95.1465,VALID,0,VALID,22.8562,VALID,213,VALID,0.548828,
2008-10-20, 00:23:04,VALID,1009.32,VALID,0,VALID,95.1465,VALID,0,VALID,22.8368,VALID,231,VALID,0.429297,
2008-10-20, 00:24:04,VALID,1009.27,VALID,0,VALID,95.1084,VALID,0,VALID,22.8562,VALID,232,VALID,0.319922,
2008-10-20, 00:25:04,VALID,1009.25,VALID,0,VALID,95.0931,VALID,0,VALID,22.8952,VALID,280,VALID,0.271484,
2008-10-20, 00:26:04,VALID,1009.23,VALID,0,VALID,95.0931,VALID,0,VALID,22.8562,VALID,280,VALID,0.200391,
2008-10-20, 00:27:04,VALID,1009.2,VALID,0,VALID,95.0855,VALID,0,VALID,22.8757,VALID,278,VALID,0.154297,
2008-10-20, 00:28:04,VALID,1009.18,VALID,0,VALID,95.0855,VALID,0,VALID,22.8562,VALID,278,VALID,0,
2008-10-20, 00:29:04,VALID,1009.17,VALID,0,VALID,95.0855,VALID,0,VALID,22.8562,VALID,278,VALID,0.00117188,
2008-10-20, 00:30:04,VALID,1009.17,VALID,0,VALID,95.0855,VALID,0,VALID,22.8155,VALID,244,VALID,0.245703,
2008-10-20, 00:31:04,VALID,1009.12,VALID,0,VALID,95.055,VALID,0,VALID,22.819,VALID,244,VALID,0.326562,
2008-10-20, 00:32:04,VALID,1009.11,VALID,0,VALID,95.0626,VALID,0,VALID,22.8368,VALID,244,VALID,0.0257812,
2008-10-20, 00:33:04,VALID,1009.09,VALID,0,VALID,95.0703,VALID,0.105969,VALID,22.8173,VALID,244,VALID,0,
2008-10-20, 00:34:04,VALID,1009.1,VALID,0,VALID,95.0474,VALID,0,VALID,22.8173,VALID,244,VALID,0.236719,
2008-10-20, 00:35:04,VALID,1009.08,VALID,0,VALID,95.0855,VALID,0,VALID,22.8173,VALID,241,VALID,0.280859,
2008-10-20, 00:36:05,VALID,1009.06,VALID,0,VALID,95.0626,VALID,0,VALID,22.8368,VALID,241,VALID,0.0890625,
2008-10-20, 00:37:05,VALID,1009.07,VALID,0,VALID,95.0703,VALID,0,VALID,22.8368,VALID,241,VALID,0.152344,
2008-10-20, 00:38:05,VALID,1009.09,VALID,0,VALID,95.0779,VALID,0,VALID,22.8155,VALID,241,VALID,0.0914062,
2008-10-20, 00:39:05,VALID,1009.06,VALID,0,VALID,95.0703,VALID,0,VALID,22.7978,VALID,240,VALID,0.424219,
2008-10-20, 00:40:05,VALID,1009.06,VALID,0,VALID,95.055,VALID,0,VALID,22.8155,VALID,238,VALID,0.298438,
2008-10-20, 00:41:05,VALID,1009.04,VALID,0,VALID,95.0626,VALID,0,VALID,22.8368,VALID,230,VALID,0,
2008-10-20, 00:42:05,VALID,1008.98,VALID,0,VALID,95.0474,VALID,0,VALID,22.8155,VALID,232,VALID,0.355469,
2008-10-20, 00:43:05,VALID,1008.99,VALID,0,VALID,95.0245,VALID,0,VALID,22.8173,VALID,237,VALID,0.223047,
2008-10-20, 00:44:05,VALID,1008.98,VALID,0,VALID,95.0245,VALID,0,VALID,22.8368,VALID,238,VALID,0.00898437,
2008-10-20, 00:45:05,VALID,1008.93,VALID,0,VALID,95.0093,VALID,0,VALID,22.8173,VALID,238,VALID,0,
2008-10-20, 00:46:05,VALID,1008.95,VALID,0,VALID,95.0093,VALID,0,VALID,22.7961,VALID,238,VALID,0.0488281,
2008-10-20, 00:47:05,VALID,1008.93,VALID,0,VALID,95.0626,VALID,0,VALID,22.8173,VALID,255,VALID,0.405469,
2008-10-20, 00:48:05,VALID,1008.91,VALID,0,VALID,95.0626,VALID,0,VALID,22.8173,VALID,255,VALID,0.267188,
2008-10-20, 00:49:05,VALID,1008.92,VALID,0,VALID,95.1084,VALID,0,VALID,22.835,VALID,255,VALID,0.207031,
2008-10-20, 00:50:05,VALID,1008.91,VALID,0,VALID,95.1236,VALID,0.105969,VALID,22.8368,VALID,255,VALID,0.320313,
2008-10-20, 00:51:05,VALID,1008.88,VALID,0,VALID,95.1694,VALID,0,VALID,22.8368,VALID,255,VALID,0.351953,
2008-10-20, 00:52:05,VALID,1008.88,VALID,0,VALID,95.1618,VALID,0,VALID,22.8562,VALID,255,VALID,0.4,
2008-10-20, 00:53:05,VALID,1008.83,VALID,0,VALID,95.1999,VALID,0,VALID,22.8368,VALID,255,VALID,0.203125,
2008-10-20, 00:54:05,VALID,1008.82,VALID,0,VALID,95.1923,VALID,0,VALID,22.8173,VALID,255,VALID,0.285547,
2008-10-20, 00:55:05,VALID,1008.8,VALID,0,VALID,95.2152,VALID,0,VALID,22.8368,VALID,255,VALID,0.228906,
2008-10-20, 00:56:05,VALID,1008.83,VALID,0,VALID,95.2075,VALID,0,VALID,22.8173,VALID,255,VALID,0.214844,
2008-10-20, 00:57:05,VALID,1008.78,VALID,0,VALID,95.2228,VALID,0,VALID,22.7978,VALID,255,VALID,0.229297,
2008-10-20, 00:58:05,VALID,1008.77,VALID,0,VALID,95.2304,VALID,0,VALID,22.7978,VALID,255,VALID,0.162109,
2008-10-20, 00:59:05,VALID,1008.79,VALID,0,VALID,95.2457,VALID,0,VALID,22.7783,VALID,255,VALID,0.295312,
2008-10-20, 01:00:05,VALID,1008.76,VALID,0,VALID,95.2685,VALID,0,VALID,22.7783,VALID,255,VALID,0.355859,
2008-10-20, 01:01:05,VALID,1008.75,VALID,0,VALID,95.2914,VALID,0,VALID,22.7783,VALID,265,VALID,0.390234,
2008-10-20, 01:02:05,VALID,1008.76,VALID,0,VALID,95.3143,VALID,0,VALID,22.7978,VALID,278,VALID,0.303125,
2008-10-20, 01:03:05,VALID,1008.75,VALID,0,VALID,95.3143,VALID,0,VALID,22.7978,VALID,294,VALID,0.464063,
2008-10-20, 01:04:05,VALID,1008.75,VALID,0,VALID,95.3295,VALID,0,VALID,22.7783,VALID,313,VALID,0.339453,
2008-10-20, 01:05:05,VALID,1008.73,VALID,0,VALID,95.3829,VALID,0,VALID,22.8173,VALID,315,VALID,0.423438,
2008-10-20, 01:06:05,VALID,1008.72,VALID,0,VALID,95.3753,VALID,0,VALID,22.819,VALID,327,VALID,0.219141,
2008-10-20, 01:07:05,VALID,1008.67,VALID,0,VALID,95.3677,VALID,0,VALID,22.8173,VALID,327,VALID,0.247266,
2008-10-20, 01:08:05,VALID,1008.69,VALID,0,VALID,95.3753,VALID,0,VALID,22.7961,VALID,327,VALID,0.235156,
2008-10-20, 01:09:05,VALID,1008.66,VALID,0,VALID,95.3905,VALID,0,VALID,22.7978,VALID,327,VALID,0.2875,
2008-10-20, 01:10:05,VALID,1008.65,VALID,0,VALID,95.3982,VALID,0,VALID,22.7978,VALID,327,VALID,0.348828,
2008-10-20, 01:11:05,VALID,1008.66,VALID,0,VALID,95.4058,VALID,0,VALID,22.7783,VALID,327,VALID,0.173047,
2008-10-20, 01:12:05,VALID,1008.64,VALID,0,VALID,95.4287,VALID,0,VALID,22.7783,VALID,327,VALID,0.184766,
2008-10-20, 01:13:05,VALID,1008.66,VALID,0,VALID,95.4287,VALID,0,VALID,22.7588,VALID,327,VALID,0.0257812,
2008-10-20, 01:14:05,VALID,1008.65,VALID,0,VALID,95.4363,VALID,0,VALID,22.7588,VALID,327,VALID,0.1375,
2008-10-20, 01:15:05,VALID,1008.63,VALID,0,VALID,95.4439,VALID,0,VALID,22.7394,VALID,327,VALID,0.229297,
2008-10-20, 01:16:05,VALID,1008.65,VALID,0,VALID,95.4592,VALID,0,VALID,22.7182,VALID,327,VALID,0.223828,
2008-10-20, 01:17:05,VALID,1008.64,VALID,0,VALID,95.4592,VALID,0,VALID,22.7783,VALID,327,VALID,0.379297,
2008-10-20, 01:18:05,VALID,1008.66,VALID,0,VALID,95.4363,VALID,0,VALID,22.7783,VALID,327,VALID,0.242578,
2008-10-20, 01:19:05,VALID,1008.64,VALID,0,VALID,95.4668,VALID,0,VALID,22.7995,VALID,327,VALID,0.289063,
2008-10-20, 01:20:05,VALID,1008.67,VALID,0,VALID,95.4516,VALID,0,VALID,22.7783,VALID,327,VALID,0.341016,
2008-10-20, 01:21:05,VALID,1008.64,VALID,0,VALID,95.4592,VALID,0,VALID,22.7978,VALID,327,VALID,0.21875,
2008-10-20, 01:22:05,VALID,1008.63,VALID,0,VALID,95.4744,VALID,0,VALID,22.7978,VALID,327,VALID,0.348828,
2008-10-20, 01:23:05,VALID,1008.61,VALID,0,VALID,95.4592,VALID,0,VALID,22.8368,VALID,327,VALID,0.394531,
2008-10-20, 01:24:05,VALID,1008.65,VALID,0,VALID,95.4821,VALID,0,VALID,22.7978,VALID,327,VALID,0.393359,
2008-10-20, 01:25:05,VALID,1008.64,VALID,0,VALID,95.4973,VALID,0.105969,VALID,22.7978,VALID,327,VALID,0.256641,
2008-10-20, 01:26:05,VALID,1008.62,VALID,0,VALID,95.4744,VALID,0.105969,VALID,22.8368,VALID,327,VALID,0.235547,
2008-10-20, 01:27:05,VALID,1008.6,VALID,0,VALID,95.5126,VALID,0,VALID,22.7978,VALID,323,VALID,0.451562,
2008-10-20, 01:28:05,VALID,1008.61,VALID,0,VALID,95.4897,VALID,0,VALID,22.7766,VALID,350,VALID,0.55,
2008-10-20, 01:29:05,VALID,1008.59,VALID,0,VALID,95.4821,VALID,0,VALID,22.7588,VALID,5,VALID,0.624219,
2008-10-20, 01:30:05,VALID,1008.61,VALID,0,VALID,95.5126,VALID,0,VALID,22.7376,VALID,328,VALID,0.456641,
2008-10-20, 01:31:05,VALID,1008.6,VALID,0,VALID,95.4897,VALID,0,VALID,22.7376,VALID,3,VALID,0.353125,
2008-10-20, 01:32:05,VALID,1008.6,VALID,0.5,VALID,95.5126,VALID,0,VALID,22.7588,VALID,343,VALID,0.505859,
2008-10-20, 01:33:05,VALID,1008.59,VALID,0,VALID,95.4897,VALID,0,VALID,22.7376,VALID,5,VALID,0.739844,
2008-10-20, 01:34:05,VALID,1008.53,VALID,0,VALID,95.4897,VALID,0,VALID,22.7004,VALID,351,VALID,0.651953,
2008-10-20, 01:35:05,VALID,1008.55,VALID,0,VALID,95.4973,VALID,0,VALID,22.6809,VALID,23,VALID,0.696484,
2008-10-20, 01:36:05,VALID,1008.54,VALID,0,VALID,95.4897,VALID,0.105969,VALID,22.7394,VALID,325,VALID,0.678125,
2008-10-20, 01:37:05,VALID,1008.54,VALID,0,VALID,95.4973,VALID,0,VALID,22.7004,VALID,22,VALID,0.429688,
2008-10-20, 01:38:05,VALID,1008.52,VALID,0,VALID,95.5126,VALID,0,VALID,22.7004,VALID,343,VALID,0.484375,
2008-10-20, 01:39:05,VALID,1008.5,VALID,0,VALID,95.4744,VALID,0,VALID,22.7004,VALID,28,VALID,0.297656,
2008-10-20, 01:40:05,VALID,1008.5,VALID,0,VALID,95.4897,VALID,0,VALID,22.7004,VALID,27,VALID,0.341406,
2008-10-20, 01:41:05,VALID,1008.48,VALID,0,VALID,95.5126,VALID,0,VALID,22.7004,VALID,358,VALID,0.440625,
2008-10-20, 01:42:05,VALID,1008.48,VALID,0,VALID,95.4973,VALID,0,VALID,22.7004,VALID,340,VALID,0.538281,
2008-10-20, 01:43:05,VALID,1008.47,VALID,0,VALID,95.5202,VALID,0,VALID,22.6809,VALID,37,VALID,0.610937,
2008-10-20, 01:44:05,VALID,1008.46,VALID,0,VALID,95.4897,VALID,0,VALID,22.6809,VALID,37,VALID,0.258203,
2008-10-20, 01:45:05,VALID,1008.46,VALID,0,VALID,95.5049,VALID,0,VALID,22.6632,VALID,32,VALID,0.4625,
2008-10-20, 01:46:05,VALID,1008.42,VALID,0,VALID,95.5202,VALID,0,VALID,22.6809,VALID,31,VALID,0.458203,
2008-10-20, 01:47:05,VALID,1008.38,VALID,0,VALID,95.5126,VALID,0,VALID,22.642,VALID,31,VALID,0.285547,
2008-10-20, 01:48:05,VALID,1008.36,VALID,0,VALID,95.5126,VALID,0,VALID,22.6614,VALID,31,VALID,0.0492188,
2008-10-20, 01:49:05,VALID,1008.33,VALID,0,VALID,95.5278,VALID,0,VALID,22.6402,VALID,12,VALID,0.283594,
2008-10-20, 01:50:05,VALID,1008.32,VALID,0,VALID,95.5354,VALID,0,VALID,22.6614,VALID,337,VALID,0.253516,
2008-10-20, 01:51:05,VALID,1008.31,VALID,0,VALID,95.5202,VALID,0,VALID,22.6614,VALID,322,VALID,0.455078,
2008-10-20, 01:52:05,VALID,1008.28,VALID,0,VALID,95.5431,VALID,0,VALID,22.6614,VALID,303,VALID,0.0589844,
2008-10-20, 01:53:05,VALID,1008.25,VALID,0,VALID,95.5507,VALID,0,VALID,22.7004,VALID,303,VALID,0.00429688,
2008-10-20, 01:54:05,VALID,1008.22,VALID,0,VALID,95.5507,VALID,0,VALID,22.6809,VALID,303,VALID,0.00195313,
2008-10-20, 01:55:05,VALID,1008.2,VALID,0,VALID,95.5354,VALID,0,VALID,22.6809,VALID,319,VALID,0.0964844,
2008-10-20, 01:56:05,VALID,1008.16,VALID,0,VALID,95.5278,VALID,0,VALID,22.6597,VALID,338,VALID,0,
2008-10-20, 01:57:05,VALID,1008.15,VALID,0,VALID,95.5507,VALID,0,VALID,22.6809,VALID,338,VALID,0.100391,
2008-10-20, 01:58:05,VALID,1008.11,VALID,0,VALID,95.5583,VALID,0,VALID,22.6809,VALID,338,VALID,0.01875,
2008-10-20, 01:59:05,VALID,1008.08,VALID,0,VALID,95.5583,VALID,0,VALID,22.6809,VALID,338,VALID,0.290625,
2008-10-20, 02:00:05,VALID,1008.04,VALID,0,VALID,95.5812,VALID,0,VALID,22.6809,VALID,338,VALID,0.184766,
2008-10-20, 02:01:05,VALID,1008.01,VALID,0,VALID,95.5431,VALID,0,VALID,22.6826,VALID,338,VALID,0,
2008-10-20, 02:02:05,VALID,1008.01,VALID,0,VALID,95.5736,VALID,0,VALID,22.6809,VALID,338,VALID,0,
2008-10-20, 02:03:05,VALID,1007.95,VALID,0,VALID,95.5659,VALID,0,VALID,22.6614,VALID,82,VALID,0.462109,
2008-10-20, 02:04:05,VALID,1007.91,VALID,0,VALID,95.5736,VALID,0,VALID,22.6614,VALID,82,VALID,0.00546875,
2008-10-20, 02:05:05,VALID,1007.89,VALID,0,VALID,95.5736,VALID,0,VALID,22.6614,VALID,82,VALID,0,
2008-10-20, 02:06:05,VALID,1007.9,VALID,0,VALID,95.5736,VALID,0,VALID,22.6809,VALID,82,VALID,0.0179687,
2008-10-20, 02:07:05,VALID,1007.85,VALID,0,VALID,95.5659,VALID,0,VALID,22.6614,VALID,82,VALID,0.576953,
2008-10-20, 02:08:05,VALID,1007.81,VALID,0,VALID,95.5736,VALID,0,VALID,22.6809,VALID,82,VALID,0.548828,
2008-10-20, 02:09:05,VALID,1007.79,VALID,0,VALID,95.5736,VALID,0,VALID,22.6614,VALID,58,VALID,0.451172,
2008-10-20, 02:10:05,VALID,1007.74,VALID,0,VALID,95.6041,VALID,0,VALID,22.6614,VALID,80,VALID,0.633203,
2008-10-20, 02:11:05,VALID,1007.72,VALID,0,VALID,95.6041,VALID,0,VALID,22.6614,VALID,86,VALID,0.526563,
2008-10-20, 02:12:05,VALID,1007.66,VALID,0,VALID,95.5964,VALID,0,VALID,22.6614,VALID,89,VALID,0.579297,
2008-10-20, 02:13:05,VALID,1007.65,VALID,0,VALID,95.5888,VALID,0,VALID,22.642,VALID,78,VALID,0.652734,
2008-10-20, 02:14:05,VALID,1007.63,VALID,0,VALID,95.5888,VALID,0,VALID,22.6614,VALID,78,VALID,0.442578,
2008-10-20, 02:15:05,VALID,1007.6,VALID,0,VALID,95.5812,VALID,0,VALID,22.6809,VALID,78,VALID,0.236719,
2008-10-20, 02:16:05,VALID,1007.6,VALID,0,VALID,95.5888,VALID,0,VALID,22.6614,VALID,64,VALID,0.197266,
2008-10-20, 02:17:05,VALID,1007.55,VALID,0,VALID,95.6117,VALID,0,VALID,22.6614,VALID,33,VALID,0.511719,
2008-10-20, 02:18:05,VALID,1007.54,VALID,0,VALID,95.5888,VALID,0.105969,VALID,22.6208,VALID,30,VALID,0.178906,
2008-10-20, 02:19:05,VALID,1007.53,VALID,0,VALID,95.6193,VALID,0,VALID,22.642,VALID,30,VALID,0.147656,
2008-10-20, 02:20:05,VALID,1007.51,VALID,0,VALID,95.6117,VALID,0,VALID,22.6614,VALID,30,VALID,0.359375,
2008-10-20, 02:21:05,VALID,1007.48,VALID,0,VALID,95.6117,VALID,0,VALID,22.7004,VALID,30,VALID,0,
2008-10-20, 02:22:05,VALID,1007.45,VALID,0,VALID,95.6269,VALID,0,VALID,22.6809,VALID,332,VALID,0.490234,
2008-10-20, 02:23:05,VALID,1007.41,VALID,0,VALID,95.6346,VALID,0,VALID,22.6614,VALID,333,VALID,0,
2008-10-20, 02:24:05,VALID,1007.36,VALID,0,VALID,95.6269,VALID,0,VALID,22.6402,VALID,333,VALID,0,
2008-10-20, 02:25:05,VALID,1007.37,VALID,0,VALID,95.6346,VALID,0.105969,VALID,22.6614,VALID,333,VALID,0.114063,
2008-10-20, 02:26:05,VALID,1007.34,VALID,0,VALID,95.6574,VALID,0,VALID,22.6809,VALID,333,VALID,0.219922,
2008-10-20, 02:27:05,VALID,1007.31,VALID,0,VALID,95.6269,VALID,0,VALID,22.642,VALID,55,VALID,0.465234,
2008-10-20, 02:28:05,VALID,1007.31,VALID,0,VALID,95.6269,VALID,0,VALID,22.6208,VALID,55,VALID,0.120312,
2008-10-20, 02:29:05,VALID,1007.26,VALID,0,VALID,95.6651,VALID,0,VALID,22.642,VALID,55,VALID,0.121484,
2008-10-20, 02:30:05,VALID,1007.26,VALID,0,VALID,95.6422,VALID,0,VALID,22.642,VALID,47,VALID,0.0753906,
2008-10-20, 02:31:05,VALID,1007.24,VALID,0,VALID,95.6498,VALID,0,VALID,22.6225,VALID,60,VALID,0.550781,
2008-10-20, 02:32:05,VALID,1007.24,VALID,0,VALID,95.6651,VALID,0,VALID,22.6225,VALID,66,VALID,0.29375,
2008-10-20, 02:33:05,VALID,1007.19,VALID,0,VALID,95.6651,VALID,0,VALID,22.6225,VALID,66,VALID,0.430469,
2008-10-20, 02:34:05,VALID,1007.2,VALID,0,VALID,95.6727,VALID,0,VALID,22.6225,VALID,66,VALID,0.434375,
2008-10-20, 02:35:05,VALID,1007.18,VALID,0,VALID,95.6574,VALID,0,VALID,22.6225,VALID,60,VALID,0.424219,
2008-10-20, 02:36:05,VALID,1007.13,VALID,0,VALID,95.6193,VALID,0,VALID,22.5818,VALID,74,VALID,0.425391,
2008-10-20, 02:37:05,VALID,1007.11,VALID,0,VALID,95.6803,VALID,0.105969,VALID,22.6225,VALID,71,VALID,0.416797,
2008-10-20, 02:38:05,VALID,1007.1,VALID,0,VALID,95.6803,VALID,0,VALID,22.5835,VALID,71,VALID,0.0828125,
2008-10-20, 02:39:05,VALID,1007.07,VALID,0,VALID,95.6727,VALID,0,VALID,22.603,VALID,34,VALID,0.404687,
2008-10-20, 02:40:05,VALID,1007.03,VALID,0,VALID,95.6498,VALID,0,VALID,22.6225,VALID,85,VALID,0.394922,
2008-10-20, 02:41:05,VALID,1007,VALID,0,VALID,95.6574,VALID,0,VALID,22.5835,VALID,75,VALID,0.296094,
2008-10-20, 02:42:05,VALID,1006.97,VALID,0,VALID,95.6803,VALID,0,VALID,22.5623,VALID,75,VALID,0.14375,
2008-10-20, 02:43:05,VALID,1006.97,VALID,0,VALID,95.6651,VALID,0,VALID,22.5835,VALID,74,VALID,0.43125,
2008-10-20, 02:44:05,VALID,1006.95,VALID,0,VALID,95.6651,VALID,0,VALID,22.5835,VALID,82,VALID,0.708203,
2008-10-20, 02:45:05,VALID,1006.94,VALID,0,VALID,95.6956,VALID,0,VALID,22.5429,VALID,63,VALID,0.786328,
2008-10-20, 02:46:05,VALID,1006.93,VALID,0,VALID,95.7032,VALID,0.105969,VALID,22.564,VALID,46,VALID,0.590234,
2008-10-20, 02:47:05,VALID,1006.93,VALID,0,VALID,95.6651,VALID,0,VALID,22.564,VALID,59,VALID,0.475391,
2008-10-20, 02:48:05,VALID,1006.94,VALID,0,VALID,95.688,VALID,0,VALID,22.564,VALID,72,VALID,0.510156,
2008-10-20, 02:49:05,VALID,1006.92,VALID,0,VALID,95.7108,VALID,0,VALID,22.564,VALID,30,VALID,0.307813,
2008-10-20, 02:50:05,VALID,1006.91,VALID,0,VALID,95.688,VALID,0,VALID,22.5446,VALID,30,VALID,0.318359,
2008-10-20, 02:51:05,VALID,1006.91,VALID,0,VALID,95.6727,VALID,0,VALID,22.5446,VALID,61,VALID,0.717578,
2008-10-20, 02:52:05,VALID,1006.9,VALID,0,VALID,95.6803,VALID,0,VALID,22.5251,VALID,49,VALID,0.570313,
2008-10-20, 02:53:05,VALID,1006.92,VALID,0,VALID,95.688,VALID,0.105969,VALID,22.5446,VALID,47,VALID,0.266406,
2008-10-20, 02:54:05,VALID,1006.93,VALID,0,VALID,95.6574,VALID,0,VALID,22.5446,VALID,48,VALID,0.263281,
2008-10-20, 02:55:05,VALID,1006.94,VALID,0,VALID,95.6956,VALID,0,VALID,22.5234,VALID,61,VALID,0.278125,
2008-10-20, 02:56:05,VALID,1006.92,VALID,0,VALID,95.6727,VALID,0,VALID,22.564,VALID,53,VALID,0.317578,
2008-10-20, 02:57:05,VALID,1006.94,VALID,0,VALID,95.688,VALID,0.105969,VALID,22.5234,VALID,29,VALID,0.185937,
2008-10-20, 02:58:05,VALID,1006.93,VALID,0,VALID,95.6956,VALID,0,VALID,22.5251,VALID,29,VALID,0.405859,
2008-10-20, 02:59:05,VALID,1006.93,VALID,0,VALID,95.688,VALID,0,VALID,22.5234,VALID,29,VALID,0.00195313,
2008-10-20, 03:00:05,VALID,1006.94,VALID,0,VALID,95.688,VALID,0,VALID,22.5039,VALID,29,VALID,0.168359,
2008-10-20, 03:01:05,VALID,1006.98,VALID,0,VALID,95.6803,VALID,0,VALID,22.5039,VALID,83,VALID,0.337891,
2008-10-20, 03:02:05,VALID,1006.98,VALID,0,VALID,95.688,VALID,0,VALID,22.5251,VALID,84,VALID,0.45625,
2008-10-20, 03:03:05,VALID,1006.97,VALID,0,VALID,95.688,VALID,0,VALID,22.5446,VALID,83,VALID,0.532812,
2008-10-20, 03:04:05,VALID,1006.99,VALID,0,VALID,95.6956,VALID,0,VALID,22.5446,VALID,92,VALID,0.711328,
2008-10-20, 03:05:05,VALID,1007.03,VALID,0,VALID,95.6956,VALID,0,VALID,22.5446,VALID,91,VALID,0.209375,
2008-10-20, 03:06:05,VALID,1007,VALID,0,VALID,95.6956,VALID,0,VALID,22.5446,VALID,89,VALID,0.565625,
2008-10-20, 03:07:05,VALID,1007.03,VALID,0,VALID,95.7108,VALID,0,VALID,22.5446,VALID,69,VALID,0.385156,
2008-10-20, 03:08:05,VALID,1007.05,VALID,0,VALID,95.6803,VALID,0,VALID,22.5446,VALID,69,VALID,0.372656,
2008-10-20, 03:09:05,VALID,1007.09,VALID,0,VALID,95.6956,VALID,0,VALID,22.5234,VALID,69,VALID,0,
2008-10-20, 03:10:05,VALID,1007.11,VALID,0,VALID,95.7032,VALID,0,VALID,22.564,VALID,69,VALID,0.532422,
2008-10-20, 03:11:05,VALID,1007.13,VALID,0,VALID,95.688,VALID,0,VALID,22.5251,VALID,69,VALID,0.382031,
2008-10-20, 03:12:05,VALID,1007.17,VALID,0,VALID,95.6803,VALID,0,VALID,22.5446,VALID,91,VALID,0.814062,
2008-10-20, 03:13:05,VALID,1007.21,VALID,0,VALID,95.6956,VALID,0,VALID,22.5835,VALID,82,VALID,0.469141,
2008-10-20, 03:14:05,VALID,1007.22,VALID,0,VALID,95.6803,VALID,0,VALID,22.5446,VALID,106,VALID,0.669531,
2008-10-20, 03:15:05,VALID,1007.24,VALID,0,VALID,95.688,VALID,0,VALID,22.5852,VALID,97,VALID,0.56875,
2008-10-20, 03:16:05,VALID,1007.28,VALID,0,VALID,95.6803,VALID,0,VALID,22.5835,VALID,97,VALID,0.342187,
2008-10-20, 03:17:05,VALID,1007.31,VALID,0,VALID,95.688,VALID,0,VALID,22.564,VALID,104,VALID,0.5375,
2008-10-20, 03:18:05,VALID,1007.29,VALID,0,VALID,95.6803,VALID,0,VALID,22.603,VALID,108,VALID,0.622266,
2008-10-20, 03:19:05,VALID,1007.31,VALID,0,VALID,95.688,VALID,0,VALID,22.603,VALID,121,VALID,0.662891,
2008-10-20, 03:20:05,VALID,1007.32,VALID,0,VALID,95.6651,VALID,0,VALID,22.603,VALID,139,VALID,0.857031,
2008-10-20, 03:21:04,VALID,1007.34,VALID,0,VALID,95.6651,VALID,0,VALID,22.6013,VALID,156,VALID,0.980469,
2008-10-20, 03:22:04,VALID,1007.34,VALID,0,VALID,95.6727,VALID,0,VALID,22.5835,VALID,130,VALID,1.03633,
2008-10-20, 03:23:04,VALID,1007.35,VALID,0,VALID,95.688,VALID,0,VALID,22.5818,VALID,126,VALID,0.546094,
2008-10-20, 03:24:04,VALID,1007.34,VALID,0,VALID,95.6651,VALID,0,VALID,22.642,VALID,109,VALID,0.681641,
2008-10-20, 03:25:04,VALID,1007.36,VALID,0,VALID,95.6498,VALID,0,VALID,22.5835,VALID,96,VALID,1.26719,
2008-10-20, 03:26:04,VALID,1007.35,VALID,0,VALID,95.6422,VALID,0,VALID,22.5818,VALID,104,VALID,0.985937,
2008-10-20, 03:27:04,VALID,1007.37,VALID,0,VALID,95.6651,VALID,0,VALID,22.5835,VALID,107,VALID,1.11797,
2008-10-20, 03:28:04,VALID,1007.37,VALID,0,VALID,95.6498,VALID,0,VALID,22.603,VALID,104,VALID,0.998047,
2008-10-20, 03:29:04,VALID,1007.35,VALID,0,VALID,95.6498,VALID,0,VALID,22.6225,VALID,109,VALID,0.681641,
2008-10-20, 03:30:04,VALID,1007.34,VALID,0,VALID,95.6422,VALID,0,VALID,22.6225,VALID,101,VALID,0.957422,
2008-10-20, 03:31:04,VALID,1007.35,VALID,0,VALID,95.6422,VALID,0,VALID,22.6597,VALID,114,VALID,0.667188,
2008-10-20, 03:32:04,VALID,1007.36,VALID,0,VALID,95.6269,VALID,0,VALID,22.642,VALID,113,VALID,0.816016,
2008-10-20, 03:33:04,VALID,1007.37,VALID,0,VALID,95.6346,VALID,0,VALID,22.6225,VALID,112,VALID,1.07969,
2008-10-20, 03:34:04,VALID,1007.36,VALID,0,VALID,95.6041,VALID,0,VALID,22.6225,VALID,105,VALID,0.793359,
2008-10-20, 03:35:04,VALID,1007.34,VALID,0,VALID,95.5964,VALID,0,VALID,22.5835,VALID,102,VALID,1.18359,
2008-10-20, 03:36:04,VALID,1007.34,VALID,0,VALID,95.6193,VALID,0,VALID,22.6225,VALID,129,VALID,0.722656,
2008-10-20, 03:37:04,VALID,1007.34,VALID,0,VALID,95.6193,VALID,0,VALID,22.6225,VALID,107,VALID,0.80625,
2008-10-20, 03:38:04,VALID,1007.35,VALID,0,VALID,95.6117,VALID,0,VALID,22.6225,VALID,103,VALID,0.652344,
2008-10-20, 03:39:04,VALID,1007.33,VALID,0,VALID,95.5964,VALID,0,VALID,22.603,VALID,120,VALID,1.07773,
2008-10-20, 03:40:04,VALID,1007.36,VALID,0,VALID,95.5964,VALID,0,VALID,22.603,VALID,104,VALID,1.03477,
2008-10-20, 03:41:04,VALID,1007.35,VALID,0,VALID,95.5964,VALID,0,VALID,22.5835,VALID,77,VALID,1.37227,
2008-10-20, 03:42:04,VALID,1007.33,VALID,0,VALID,95.5583,VALID,0,VALID,22.5623,VALID,71,VALID,1.26211,
2008-10-20, 03:43:04,VALID,1007.34,VALID,0,VALID,95.5583,VALID,0,VALID,22.564,VALID,82,VALID,1.29258,
2008-10-20, 03:44:04,VALID,1007.34,VALID,0,VALID,95.5507,VALID,0,VALID,22.5446,VALID,85,VALID,1.45547,
2008-10-20, 03:45:04,VALID,1007.34,VALID,0,VALID,95.5507,VALID,0,VALID,22.5251,VALID,79,VALID,1.45508,